"2022-07-18 00:01:00",3029445,0.3066667,45.80095,3.309615,0.01885618,0.33,0,0.06266667,94.1675,11.13539,0.04234252,0.15,0,-999,0,12.36,86.9,12.43,12.49,0.2,0,0,11.91,13.27,0.2,102.546,3.324,3.325,3.322,100,0,0,0,169.2,103.8,103.8
"2022-07-18 00:02:00",3029446,0.2713333,32.73315,6.199439,0.01820867,0.3,0,0.01133333,104.717,42.36665,0.008055364,0.03,0,-999,0,12.36,86.9,12.39,12.46,0.2,0,0,11.9,13.27,0.2,102.5495,3.325,3.325,3.322,100,0,0,0,169.2,103.8,103.8
"2022-07-18 00:03:00",3029447,0.256,14.26692,3.623237,0.004898974,0.26,0,0.01066667,203.5176,33.00321,0.008537499,0.03,0,-999,0,12.32,86.8,12.31,12.42,0.2,0,0,11.89,13.27,0.2,102.547,3.325,3.326,3.325,100,0,0,0,169.2,103.8,103.8
"2022-07-18 00:04:00",3029448,0.2393333,0.064863,5.446089,0.01913693,0.26,0,0.03533333,290.5315,9.140841,0.006182412,0.04,0,-999,0,12.28,86.6,12.28,12.37,0.2,0,0,11.88,13.27,0.2,102.5483,3.325,3.326,3.322,100,0,0,0,169.2,103.8,103.8
"2022-07-18 00:05:00",3029449,0.2153334,356.0668,3.453276,0.008055363,0.23,0,0.018,7.526583,47.25013,0.01469694,0.05,0,-999,0,12.26,86.4,12.24,12.32,0.2,0,0,11.86,13.27,0.2,102.5448,3.325,3.325,3.322,100,0,0,0,169.2,103.8,103.8
"2022-07-18 00:06:00",3029450,0.246,342.0657,2.998705,0.02026491,0.28,0,0.034,76.03781,60.29443,0.01704895,0.07,0,-999,0,12.2,86.1,12.18,12.27,0.2,0,0,11.85,13.27,0.2,102.5508,3.325,3.326,3.325,100,0,0,0,169.2,103.8,103.8
"2022-07-18 00:07:00",3029451,0.1786667,347.2672,2.694342,0.01407914,0.21,0,0.08133335,153.9264,8.99458,0.01746107,0.11,0,-999,0,12.16,85.9,12.13,12.2,0.2,0,0,11.84,13.27,0.2,102.5427,3.325,3.325,3.324,100,0,0,0,169.2,103.8,103.8
"2022-07-18 00:08:00",3029452,0.154,353.9924,5.767381,0.0284722,0.21,0,0.122,146.4068,9.20717,0.0132665,0.15,0,-999,0,12.14,85.9,12.09,12.15,0.2,0,0,11.82,13.27,0.2,102.5448,3.324,3.325,3.322,100,0,0,0,169.2,103.8,103.8
"2022-07-18 00:09:00",3029453,0.07133333,38.46173,23.61351,0.01857118,0.12,0,0.2153333,152.4018,5.792469,0.03630733,0.25,0,-999,0,12.13,86,12.07,12.12,0.2,0,0,11.82,13.27,0.2,102.5361,3.325,3.325,3.322,100,0,0,0,169.2,103.8,103.8
"2022-07-18 00:10:00",3029454,0.1153333,47.06463,8.473736,0.0348074,0.17,0,0.188,160.5999,1.854711,0.03448671,0.25,0,-999,0,12.11,86.2,12.03,12.11,0.2,0,0,11.79,13.27,0.2,102.5371,3.325,3.325,3.323,100,0,0,0,169.2,103.8,103.8
"2022-07-18 00:11:00",3029455,0.2073333,71.46575,11.82661,0.04327688,0.27,0,0.22,144.9249,11.95127,0.03723797,0.28,0,-999,0,12.07,86.4,12.01,12.1,0.2,0,0,11.78,13.27,0.2,102.536,3.325,3.325,3.324,100,0,0,0,169.2,103.8,103.8
"2022-07-18 00:12:00",3029456,0.3053333,78.7334,2.593768,0.017075,0.35,0,0.206,112.5963,6.353005,0.03720215,0.3,0,-999,0,12.06,86.5,12.05,12.11,0.2,0,0,11.77,13.27,0.2,102.536,3.325,3.325,3.323,100,0,0,0,169.2,103.8,103.8
"2022-07-18 00:13:00",3029457,0.418,77.06682,2.264501,0.03798245,0.46,0,0.276,107.2,2.135263,0.05736434,0.37,0,-999,0,12.05,86.6,12.11,12.12,0.2,0,0,11.75,13.27,0.2,102.5322,3.324,3.325,3.324,100,0,0,0,169.2,103.8,103.8
"2022-07-18 00:14:00",3029458,0.4653333,79.00048,2.159933,0.009568464,0.48,0,0.3953333,100.7302,5.458157,0.01961859,0.43,0,-999,0,12.02,86.8,12.13,12.12,0.2,0,0,11.73,13.27,0.2,102.5297,3.324,3.325,3.323,100,0,0,0,169.2,103.8,103.8
"2022-07-18 00:15:00",3029459,0.472,70.66666,1.988808,0.02481934,0.53,0,0.302,95.05118,6.098492,0.02925748,0.37,0,-999,0,12.02,86.9,12.13,12.12,0.2,0,0,11.72,13.27,0.2,102.5312,3.323,3.325,3.323,100,0,0,0,169.2,103.8,103.8
"2022-07-18 00:16:00",3029460,0.5146667,77.39984,1.451231,0.01359738,0.54,0,0.234,120.4099,9.468928,0.04772141,0.3,0,-999,0,12.02,87,12.13,12.13,0.2,0,0,11.71,13.27,0.2,102.5314,3.324,3.325,3.323,100,0,0,0,169.2,103.8,103.8
"2022-07-18 00:17:00",3029461,0.5326667,81.13337,1.203728,0.01878534,0.56,0,0.182,112.6902,9.805052,0.02508652,0.22,0,-999,0,12.01,87,12.11,12.13,0.2,0,0,11.69,13.27,0.2,102.5346,3.323,3.325,3.323,100,0,0,0,169.2,103.8,103.8
"2022-07-18 00:18:00",3029462,0.4733333,80.20099,3.18693,0.05015532,0.55,0,0.08799999,145.7187,28.15257,0.02970971,0.16,0,-999,0,11.97,87,12.06,12.1,0.2,0,0,11.68,13.27,0.2,102.5295,3.324,3.324,3.323,100,0,0,0,169.2,103.8,103.8
"2022-07-18 00:19:00",3029463,0.402,79.46661,1.454263,0.02286191,0.46,0,0.032,228.9761,23.13759,0.007483314,0.04,0,-999,0,11.93,86.9,12,12.04,0.2,0,0,11.66,13.27,0.2,102.5335,3.325,3.325,3.321,100,0,0,0,169.2,103.8,103.8
"2022-07-18 00:20:00",3029464,0.3846667,78.00101,2.707258,0.01407914,0.41,0,0.06133334,209.6262,16.93102,0.02217105,0.11,0,-999,0,11.91,86.8,11.94,12,0.2,0,0,11.64,13.27,0.2,102.5298,3.324,3.324,3.321,100,0,0,0,169.2,103.8,103.8
"2022-07-18 00:21:00",3029465,0.3906667,69.20006,2.534931,0.01289272,0.41,0,0.074,217.415,16.07144,0.01404754,0.1,0,-999,0,11.88,86.6,11.88,11.94,0.2,0,0,11.63,13.27,0.2,102.5296,3.325,3.325,3.321,100,0,0,0,169.2,103.8,103.8
"2022-07-18 00:22:00",3029466,0.3980001,70.66694,2.547,0.01375984,0.42,0,0.1386666,199.7299,7.196628,0.02918143,0.17,0,-999,0,11.86,86.6,11.83,11.9,0.2,0,0,11.62,13.27,0.2,102.5285,3.323,3.325,3.323,100,0,0,0,169.2,103.8,103.8
"2022-07-18 00:23:00",3029467,0.3866667,71.93337,2.568145,0.02211083,0.43,0,0.2046667,208.1826,9.607077,0.02061283,0.24,0,-999,0,11.81,86.6,11.81,11.86,0.2,0,0,11.61,13.27,0.2,102.53,3.323,3.324,3.321,100,0,0,0,169.2,103.8,103.8
"2022-07-18 00:24:00",3029468,0.3473334,74.53427,3.283137,0.01062492,0.36,0,0.2213333,210.5265,5.929912,0.01995551,0.25,0,-999,0,11.79,86.6,11.81,11.85,0.2,0,0,11.59,13.27,0.2,102.5282,3.323,3.325,3.323,100,0,0,0,169.2,103.8,103.8
"2022-07-18 00:25:00",3029469,0.3213333,76.66682,2.021914,0.01892676,0.35,0,0.2006667,209.3333,1.445013,0.01181336,0.22,0,-999,0,11.75,86.7,11.82,11.84,0.2,0,0,11.58,13.27,0.2,102.5333,3.323,3.324,3.321,100,0,0,0,169.2,103.8,103.8
"2022-07-18 00:26:00",3029470,0.266,65.6049,7.336057,0.02471167,0.31,0,0.1966667,218.7356,5.77831,0.0101105,0.22,0,-999,0,11.73,86.9,11.83,11.85,0.2,0,0,11.56,13.27,0.2,102.5393,3.325,3.325,3.321,100,0,0,0,169.2,103.8,103.8
"2022-07-18 00:27:00",3029471,0.2473333,73.00472,6.621397,0.02407396,0.3,0,0.222,201.7772,8.202734,0.01275409,0.24,0,-999,0,11.72,87.2,11.82,11.86,0.2,0,0,11.54,13.27,0.2,102.5259,3.323,3.325,3.323,100,0,0,0,169.2,103.8,103.8
"2022-07-18 00:28:00",3029472,0.306,79.0312,11.46045,0.05583308,0.38,0,0.2513333,204.4558,7.262667,0.01927578,0.27,0,-999,0,11.73,87.4,11.86,11.88,0.2,0,0,11.54,13.26,0.2,102.5261,3.321,3.324,3.321,100,0,0,0,169.2,103.8,103.8
"2022-07-18 00:29:00",3029473,0.3246666,80.59443,5.107941,0.02848781,0.38,0,0.272,219.0079,4.643312,0.01557777,0.3,0,-999,0,11.74,87.7,11.9,11.91,0.2,0,0,11.53,13.27,0.2,102.5276,3.323,3.323,3.321,100,0,0,0,169.2,103.8,103.8
"2022-07-18 00:30:00",3029474,0.2973333,77.13317,2.753306,0.02644911,0.35,0,0.3573333,214.8667,1.454465,0.04404038,0.41,0,-999,0,11.74,87.8,11.92,11.93,0.2,0,0,11.52,13.27,0.2,102.5288,3.321,3.324,3.321,100,0,0,0,169.2,103.8,103.8
"2022-07-18 00:31:00",3029475,0.196,86.46603,7.674045,0.03072458,0.24,0,0.4246667,217.9947,4.951286,0.02777689,0.46,0,-999,0,11.75,88,11.92,11.99,0.2,0,0,11.5,13.27,0.2,102.5295,3.323,3.325,3.322,100,0,0,0,169.2,103.8,103.8
"2022-07-18 00:32:00",3029476,0.1326667,64.65903,9.812587,0.01236483,0.15,0,0.4493333,226.6668,2.270591,0.01878534,0.48,0,-999,0,11.75,88.3,11.98,12.02,0.2,0,0,11.49,13.27,0.2,102.5384,3.323,3.324,3.323,100,0,0,0,169.2,103.8,103.8
"2022-07-18 00:33:00",3029477,0.054,90.35699,9.559592,0.02628053,0.1,0,0.5353334,227.5324,4.240234,0.01961859,0.56,0,-999,0,11.78,88.5,12.02,12.05,0.2,0,0,11.48,13.27,0.2,102.5271,3.324,3.324,3.32,100,0,0,0,169.2,103.8,103.8
"2022-07-18 00:34:00",3029478,0.05066667,163.3629,21.62564,0.01388845,0.07,0,0.5846667,240.8015,4.504381,0.02362672,0.63,0,-999,0,11.83,88.8,12.09,12.11,0.2,0,0,11.47,13.27,0.2,102.5186,3.323,3.324,3.321,100,0,0,0,169.2,103.8,103.8
"2022-07-18 00:35:00",3029479,0.07933333,189.2533,13.49297,0.0085375,0.09,0,0.6566666,243.6,1.143096,0.02328567,0.7,0,-999,0,11.91,89.2,12.19,12.25,0.2,0,0,11.46,13.27,0.2,102.5275,3.32,3.324,3.32,100,0,0,0,169.2,103.8,103.8
"2022-07-18 00:36:00",3029480,0.114,226.0529,12.90232,0.01818424,0.15,0,0.6926667,244.1994,2.256442,0.02743882,0.74,0,-999,0,11.97,89.5,12.27,12.35,0.2,0,0,11.45,13.26,0.2,102.5294,3.323,3.323,3.32,100,0,0,0,169.2,103.8,103.8
"2022-07-18 00:37:00",3029481,0.1786667,263.8647,4.644053,0.0158605,0.2,0,0.72,248.1333,1.146942,0.01366261,0.74,0,-999,0,12.01,89.8,12.3,12.43,0.2,0,0,11.45,13.27,0.2,102.5223,3.323,3.323,3.321,100,0,0,0,169.2,103.7,103.8
"2022-07-18 00:38:00",3029482,0.1866667,256.9333,1.435839,0.006992057,0.2,0,0.7006665,251.1329,2.777438,0.01878534,0.73,0,-999,0,12.04,90,12.29,12.45,0.2,0,0,11.45,13.27,0.2,102.5266,3.322,3.324,3.322,100,0,0,0,169.2,103.7,103.8
"2022-07-18 00:39:00",3029483,0.1933334,259.6668,3.238147,0.01988858,0.23,0,0.6266667,259.4667,1.309642,0.04628415,0.69,0,-999,0,12.03,90.1,12.27,12.41,0.2,0,0,11.43,13.27,0.2,102.5256,3.321,3.323,3.32,100,0,0,0,169.2,103.7,103.8
"2022-07-18 00:40:00",3029484,0.1506667,260.535,4.378516,0.01611073,0.18,0,0.5226666,254.7332,1.981903,0.0259401,0.56,0,-999,0,12.02,90.2,12.26,12.38,0.2,0,0,11.43,13.27,0.2,102.5219,3.323,3.323,3.32,100,0,0,0,169.2,103.7,103.7
"2022-07-18 00:41:00",3029485,0.1153333,265.0575,8.56551,0.009568468,0.14,0,0.4666666,253.5995,2.52432,0.02981424,0.52,0,-999,0,12.02,90.2,12.22,12.36,0.2,0,0,11.43,13.27,0.2,102.5179,3.32,3.324,3.32,100,0,0,0,169.2,103.7,103.7
"2022-07-18 00:42:00",3029486,0.07999999,295.6611,9.698586,0.0273252,0.12,0,0.4226666,257.9328,2.954146,0.04090097,0.48,0,-999,0,12.01,90.3,12.21,12.34,0.2,0,0,11.42,13.27,0.2,102.5223,3.32,3.323,3.32,100,0,0,0,169.2,103.7,103.7
"2022-07-18 00:43:00",3029487,0.07666666,336.0091,43.02032,0.01738454,0.1,0,0.3766667,249.4072,7.32016,0.03681787,0.44,0,-999,0,12.01,90.4,12.2,12.33,0.2,0,0,11.4,13.27,0.2,102.514,3.322,3.323,3.321,100,0,0,0,169.2,103.7,103.7
"2022-07-18 00:44:00",3029488,0.07000001,350.4569,18.39701,0.03076795,0.11,0,0.3566667,246.6044,5.486218,0.02440401,0.39,0,-999,0,12,90.5,12.13,12.31,0.2,0,0,11.4,13.27,0.2,102.5114,3.322,3.323,3.322,100,0,0,0,169.2,103.7,103.7
"2022-07-18 00:45:00",3029489,0.1326666,358.6666,2.748497,0.03213859,0.17,0,0.3226667,249.599,3.178674,0.01878534,0.35,0,-999,0,12.01,90.5,12.13,12.31,0.2,0,0,11.39,13.27,0.2,102.5264,3.323,3.323,3.321,100,0,0,0,169.2,103.7,103.7
"2022-07-18 00:46:00",3029490,0.094,344.6429,12.13533,0.04046398,0.16,0,0.3366667,244.4685,4.602229,0.02211083,0.38,0,-999,0,12.02,90.6,12.14,12.31,0.2,0,0,11.38,13.27,0.2,102.5133,3.321,3.323,3.321,100,0,0,0,169.2,103.7,103.7
"2022-07-18 00:47:00",3029491,0.08400001,319.7736,10.76672,0.02550817,0.11,0,0.3593333,251.0684,3.020462,0.0169181,0.38,0,-999,0,12,90.6,12.12,12.29,0.2,0,0,11.36,13.27,0.2,102.515,3.321,3.322,3.319,100,0,0,0,169.2,103.7,103.7
"2022-07-18 00:48:00",3029492,0.136,299.4455,8.873246,0.03261902,0.18,0,0.348,258.5992,4.543053,0.03506184,0.4,0,-999,0,12,90.7,12.1,12.28,0.2,0,0,11.36,13.27,0.2,102.5211,3.321,3.325,3.321,100,0,0,0,169.2,103.7,103.7
"2022-07-18 00:49:00",3029493,0.2193334,275.0599,5.660974,0.02719477,0.25,0,0.378,259.8673,2.47272,0.007483308,0.39,0,-999,0,12,90.7,12.13,12.28,0.2,0,0,11.35,13.27,0.2,102.5119,3.321,3.322,3.321,100,0,0,0,169.2,103.7,103.7
"2022-07-18 00:50:00",3029494,0.238,271.5998,2.215178,0.00979796,0.25,0,0.4233333,265.806,4.886153,0.021187,0.46,0,-999,0,12,90.8,12.15,12.29,0.2,0,0,11.34,13.27,0.2,102.5164,3.321,3.322,3.321,100,0,0,0,169.2,103.7,103.7
"2022-07-18 00:51:00",3029495,0.2113333,262.6682,6.768955,0.02418447,0.25,0,0.4113334,265.4002,2.846961,0.05352465,0.48,0,-999,0,12,90.8,12.18,12.3,0.2,0,0,11.33,13.27,0.2,102.5057,3.319,3.321,3.319,100,0,0,0,169.2,103.7,103.7
"2022-07-18 00:52:00",3029496,0.2979999,253.9334,1.878315,0.01720464,0.31,0,0.4146666,269.267,1.80609,0.0305214,0.46,0,-999,0,12.02,90.9,12.2,12.32,0.2,0,0,11.31,13.27,0.2,102.5075,3.323,3.323,3.319,100,0,0,0,169.2,103.7,103.7
"2022-07-18 00:53:00",3029497,0.3206666,253.9999,2.707801,0.009285595,0.34,0,0.416,272.7321,3.17185,0.008793932,0.43,0,-999,0,12.04,90.9,12.2,12.32,0.2,0,0,11.3,13.27,0.2,102.513,3.322,3.323,3.322,100,0,0,0,169.2,103.7,103.7
"2022-07-18 00:54:00",3029498,0.3666667,256.5325,2.603872,0.03091205,0.42,0,0.3613333,282.0001,2.449315,0.02418447,0.42,0,-999,0,12.08,91,12.28,12.37,0.2,0,0,11.29,13.27,0.2,102.5084,3.321,3.321,3.321,100,0,0,0,169.2,103.7,103.7
"2022-07-18 00:55:00",3029499,0.412,268.4675,3.116658,0.01469694,0.43,0,0.3806666,286.2,1.557734,0.01878533,0.41,0,-999,0,12.13,91.1,12.32,12.42,0.2,0,0,11.27,13.27,0.2,102.5068,3.321,3.323,3.321,100,0,0,0,169.2,103.7,103.7
"2022-07-18 00:56:00",3029500,0.3953333,274.6002,1.7047,0.01820866,0.42,0,0.3973333,293.5333,1.745894,0.02976948,0.45,0,-999,0,12.14,91.1,12.35,12.47,0.2,0,0,11.27,13.27,0.2,102.4937,3.321,3.322,3.321,100,0,0,0,169.2,103.7,103.7
"2022-07-18 00:57:00",3029501,0.4193333,273.0667,1.34015,0.02143724,0.44,0,0.4213333,282.9187,7.609396,0.02629744,0.47,0,-999,0,12.19,91.2,12.38,12.5,0.2,0,0,11.25,13.27,0.2,102.5038,3.322,3.322,3.321,100,0,0,0,169.2,103.7,103.7
"2022-07-18 00:58:00",3029502,0.4373334,271.7334,2.322832,0.007717222,0.45,0,0.4366667,278.8671,3.537302,0.01349897,0.47,0,-999,0,12.22,91.3,12.41,12.55,0.2,0,0,11.24,13.27,0.2,102.4969,3.322,3.323,3.321,100,0,0,0,169.2,103.7,103.7
"2022-07-18 00:59:00",3029503,0.4313334,268.6663,3.003572,0.0305214,0.46,0,0.4486667,279.9323,2.838998,0.02578544,0.48,0,-999,0,12.26,91.3,12.47,12.58,0.2,0,0,11.22,13.27,0.2,102.5053,3.321,3.323,3.321,100,0,0,0,169.2,103.7,103.7
"2022-07-18 01:00:00",3029504,0.4693333,270.4006,3.843409,0.0169181,0.5,0,0.4373333,283.9999,3.932431,0.02694851,0.48,0,-999,0,12.29,91.3,12.48,12.62,0.2,0,0,11.22,13.27,0.2,102.4986,3.321,3.322,3.321,100,0,0,0,169.2,103.7,103.7
"2022-07-18 01:01:00",3029505,0.424,265.0659,2.264198,0.02184796,0.47,0,0.312,280.4672,6.724773,0.04166534,0.38,0,-999,0,12.3,91.3,12.47,12.61,0.2,0,0,11.2,13.27,0.2,102.5065,3.319,3.321,3.318,100,0,0,0,169.2,103.7,103.7
"2022-07-18 01:02:00",3029506,0.4813333,262.0668,1.435907,0.01961858,0.51,0,0.298,289.4025,7.652521,0.04805552,0.38,0,-999,0,12.27,91.3,12.4,12.58,0.2,0,0,11.18,13.27,0.2,102.5015,3.319,3.321,3.318,100,0,0,0,169.2,103.7,103.7
"2022-07-18 01:03:00",3029507,0.5253332,258.5333,1.023875,0.01024153,0.54,0,0.3386666,281.0753,6.575119,0.03739281,0.4,0,-999,0,12.24,91.2,12.37,12.55,0.2,0,0,11.18,13.27,0.2,102.507,3.321,3.321,3.317,100,0,0,0,169.2,103.7,103.7
"2022-07-18 01:04:00",3029508,0.5786667,256.8,1.221804,0.0227645,0.62,0,0.426,284.1346,3.282868,0.06205373,0.53,0,-999,0,12.2,91.2,12.32,12.51,0.2,0,0,11.16,13.26,0.2,102.5017,3.321,3.322,3.321,100,0,0,0,169.2,103.7,103.7
"2022-07-18 01:05:00",3029509,0.5686667,256.9333,0.928337,0.01203697,0.59,0,0.522,282.3998,2.416378,0.0242762,0.56,0,-999,0,12.15,91.2,12.27,12.49,0.2,0,0,11.15,13.27,0.2,102.5061,3.321,3.322,3.32,100,0,0,0,169.2,103.7,103.7
"2022-07-18 01:06:00",3029510,0.594,259.2001,1.832886,0.01704895,0.64,0,0.552,271.9993,2.632984,0.03208323,0.62,0,-999,0,12.1,91.1,12.21,12.43,0.2,0,0,11.13,13.27,0.2,102.5032,3.322,3.323,3.321,100,0,0,0,169.2,103.7,103.7
"2022-07-18 01:07:00",3029511,0.6513333,263.8,1.469728,0.01024154,0.67,0,0.6033333,267.6014,3.554594,0.02086997,0.63,0,-999,0,12.04,91.1,12.12,12.37,0.2,0,0,11.11,13.27,0.2,102.5011,3.321,3.321,3.321,100,0,0,0,169.2,103.7,103.7
"2022-07-18 01:08:00",3029512,0.746,260.7333,1.236138,0.02678308,0.78,0,0.694,263.2,1.275493,0.05486954,0.78,0,-999,0,12.01,91.1,12.09,12.34,0.2,0,0,11.1,13.27,0.2,102.4971,3.321,3.322,3.321,100,0,0,0,169.2,103.7,103.7
"2022-07-18 01:09:00",3029513,0.8233334,255.6667,1.010697,0.01398411,0.85,0,0.5926667,258.6001,1.704814,0.03108411,0.65,0,-999,0,11.99,91.1,12.1,12.32,0.2,0,0,11.08,13.27,0.2,102.4928,3.32,3.322,3.32,100,0,0,0,169.2,103.7,103.7
"2022-07-18 01:10:00",3029514,0.7773333,254.5334,1.146771,0.02322834,0.81,0,0.5873333,269.0069,8.632534,0.03255082,0.66,0,-999,0,11.96,91,12.05,12.27,0.2,0,0,11.08,13.27,0.2,102.4983,3.32,3.321,3.32,100,0,0,0,169.2,103.7,103.7
"2022-07-18 01:11:00",3029515,0.6986666,255.9333,0.5731856,0.02156128,0.73,0,0.5006666,281.8005,3.289821,0.04596616,0.58,0,-999,0,11.92,91,12.01,12.23,0.2,0,0,11.07,13.27,0.2,102.5029,3.32,3.321,3.318,100,0,0,0,169.2,103.7,103.7
"2022-07-18 01:12:00",3029516,0.624,256.8665,1.627435,0.02550816,0.68,0,0.384,277.1329,3.946634,0.03912373,0.48,0,-999,0,11.86,90.9,11.92,12.16,0.2,0,0,11.06,13.27,0.2,102.5105,3.32,3.321,3.318,100,0,0,0,169.2,103.7,103.7
"2022-07-18 01:13:00",3029517,0.6306667,257.4,1.924911,0.02862788,0.68,0,0.3353333,275.8006,2.832605,0.04145144,0.4,0,-999,0,11.81,90.8,11.85,12.09,0.2,0,0,11.05,13.27,0.2,102.5029,3.321,3.321,3.32,100,0,0,0,169.2,103.7,103.7
"2022-07-18 01:14:00",3029518,0.5753334,261.2003,1.904405,0.02028682,0.6,0,0.3053333,291.2684,5.357835,0.02390722,0.34,0,-999,0,11.76,90.7,11.78,12.04,0.2,0,0,11.04,13.27,0.2,102.5017,3.322,3.322,3.32,100,0,0,0,169.2,103.7,103.7
"2022-07-18 01:15:00",3029519,0.4826666,268.4016,3.790671,0.04202644,0.54,0,0.374,309.3293,5.697312,0.05619015,0.46,0,-999,0,11.71,90.7,11.74,11.98,0.2,0,0,11.04,13.27,0.2,102.5002,3.321,3.323,3.318,100,0,0,0,169.2,103.7,103.7
"2022-07-18 01:16:00",3029520,0.3613333,279.3338,2.118504,0.01543445,0.39,0,0.3639999,333.2716,5.025167,0.02059126,0.39,0,-999,0,11.67,90.6,11.69,11.9,0.2,0,0,11.02,13.27,0.2,102.5039,3.321,3.321,3.32,100,0,0,0,169.2,103.7,103.7
"2022-07-18 01:17:00",3029521,0.3486666,278.0662,1.730632,0.01499629,0.37,0,0.4206667,331.3953,5.146751,0.0400777,0.48,0,-999,0,11.64,90.5,11.64,11.84,0.2,0,0,11.01,13.27,0.2,102.5,3.321,3.322,3.32,100,0,0,0,169.2,103.7,103.7
"2022-07-18 01:18:00",3029522,0.3693333,295.4716,5.498754,0.02931818,0.43,0,0.5026667,336.072,5.063827,0.009977747,0.52,0,-999,0,11.62,90.5,11.62,11.79,0.2,0,0,10.99,13.27,0.2,102.51,3.323,3.323,3.32,100,0,0,0,169.2,103.7,103.7
"2022-07-18 01:19:00",3029523,0.4373333,304.4652,3.200837,0.02515728,0.5,0,0.5573334,342.7333,1.340004,0.05579328,0.68,0,-999,0,11.6,90.4,11.58,11.77,0.2,0,0,10.99,13.27,0.2,102.5069,3.32,3.321,3.319,100,0,0,0,169.2,103.7,103.7
"2022-07-18 01:20:00",3029524,0.5433334,318.6007,2.96147,0.01490713,0.56,0,0.752,340.9997,3.119456,0.05306598,0.84,0,-999,0,11.57,90.4,11.55,11.74,0.2,0,0,10.98,13.27,0.2,102.4978,3.32,3.32,3.317,100,0,0,0,169.2,103.7,103.7
"2022-07-18 01:21:00",3029525,0.6033334,325.9332,2.40728,0.04109609,0.68,0,0.8873333,338.198,3.486042,0.021746,0.93,0,-999,0,11.54,90.3,11.51,11.72,0.2,0,0,10.96,13.27,0.2,102.5019,3.318,3.321,3.318,100,0,0,0,169.2,103.7,103.7
"2022-07-18 01:22:00",3029526,0.7300001,329.9337,2.143594,0.0219089,0.76,0,0.8933333,347.4014,3.995952,0.02328566,0.94,0,-999,0,11.48,90.2,11.44,11.65,0.2,0,0,10.95,13.27,0.2,102.4973,3.317,3.321,3.317,100,0,0,0,169.2,103.7,103.7
"2022-07-18 01:23:00",3029527,0.7813333,324.4,0.6107063,0.03073904,0.84,0,0.966,335.1992,3.207692,0.04223743,1.01,0,-999,0,11.43,90,11.39,11.59,0.2,0,0,10.94,13.27,0.2,102.5027,3.321,3.321,3.318,100,0,0,0,169.2,103.7,103.7
"2022-07-18 01:24:00",3029528,0.8766667,322.2,1.166234,0.03134043,0.92,0,0.9833333,334.2,1.045907,0.02328566,1.03,0,-999,0,11.37,89.9,11.32,11.53,0.2,0,0,10.93,13.26,0.2,102.501,3.319,3.32,3.317,100,0,0,0,169.2,103.7,103.7
"2022-07-18 01:25:00",3029529,0.9333333,316.9998,2.280233,0.02624669,0.97,0,0.9273333,334.3333,1.192374,0.03315954,0.98,0,-999,0,11.32,89.8,11.31,11.49,0.2,0,0,10.91,13.27,0.2,102.5024,3.321,3.321,3.319,100,0,0,0,169.2,103.7,103.7
"2022-07-18 01:26:00",3029530,0.942,321.2668,1.388713,0.01939071,0.99,0,0.86,335.3334,1.247329,0.03204163,0.92,0,-999,0,11.32,89.8,11.36,11.51,0.2,0,0,10.9,13.27,0.2,102.5065,3.32,3.321,3.32,100,0,0,0,169.2,103.7,103.7
"2022-07-18 01:27:00",3029531,0.9933335,320.7333,0.6798497,0.01445298,1.02,0,0.8273334,339.3994,3.573697,0.01768866,0.88,0,-999,0,11.32,89.8,11.37,11.53,0.2,0,0,10.9,13.27,0.2,102.4939,3.32,3.321,3.317,100,0,0,0,169.2,103.7,103.7
"2022-07-18 01:28:00",3029532,0.9913332,321.9333,0.7717885,0.03052139,1.04,0,0.768,342.5998,2.775815,0.04846991,0.83,0,-999,0,11.31,89.8,11.38,11.52,0.2,0,0,10.88,13.27,0.2,102.4999,3.32,3.321,3.319,100,0,0,0,169.2,103.7,103.7
"2022-07-18 01:29:00",3029533,0.9160001,325.0662,2.112254,0.02444041,0.97,0,0.6633333,353.5332,2.629371,0.02796823,0.71,0,-999,0,11.32,89.8,11.4,11.55,0.2,0,0,10.87,13.27,0.2,102.4908,3.32,3.321,3.32,100,0,0,0,169.2,103.7,103.7
"2022-07-18 01:30:00",3029534,0.8906667,324.6667,0.7885941,0.01481741,0.92,0,0.6333334,356.3336,3.238267,0.01011049,0.65,0,-999,0,11.33,89.8,11.41,11.57,0.2,0,0,10.86,13.27,0.2,102.4959,3.319,3.321,3.318,100,0,0,0,169.2,103.7,103.7
"2022-07-18 01:31:00",3029535,0.8966666,334.4009,5.780049,0.04253104,0.95,0,0.6113334,12.86804,5.472646,0.06333684,0.68,0,-999,0,11.33,89.8,11.4,11.55,0.2,0,0,10.85,13.27,0.2,102.4851,3.32,3.32,3.319,100,0,0,0,169.2,103.7,103.7
"2022-07-18 01:32:00",3029536,0.7953333,343.065,3.604041,0.03201387,0.84,0,0.5253333,25.00388,4.468788,0.03630733,0.59,0,-999,0,11.34,89.9,11.41,11.57,0.2,0,0,10.84,13.27,0.2,102.4929,3.321,3.321,3.32,100,0,0,0,169.2,103.7,103.7
"2022-07-18 01:33:00",3029537,0.8933334,342.0018,4.015658,0.04205815,0.96,0,0.5606667,25.5377,4.713124,0.06786916,0.71,0,-999,0,11.35,89.9,11.4,11.58,0.2,0,0,10.83,13.27,0.2,102.498,3.319,3.321,3.317,100,0,0,0,169.2,103.7,103.7
"2022-07-18 01:34:00",3029538,0.7919999,342.7973,3.917098,0.06134059,0.91,0,0.512,27.66242,6.620023,0.07976632,0.64,0,-999,0,11.36,90,11.4,11.58,0.2,0,0,10.81,13.27,0.2,102.498,3.319,3.32,3.317,100,0,0,0,169.2,103.7,103.7
"2022-07-18 01:35:00",3029539,0.7426666,345.1324,3.720588,0.08473225,0.83,0,0.5233334,24.06681,4.5808,0.05605553,0.61,0,-999,0,11.33,90,11.4,11.56,0.2,0,0,10.81,13.27,0.2,102.4997,3.32,3.321,3.319,100,0,0,0,169.2,103.7,103.7
"2022-07-18 01:36:00",3029540,0.4666666,347.4659,3.61171,0.02494438,0.52,0,0.3853333,26.4644,5.49906,0.07640829,0.53,0,-999,0,11.32,90,11.37,11.54,0.2,0,0,10.81,13.27,0.2,102.4977,3.319,3.321,3.319,100,0,0,0,169.2,103.7,103.7
"2022-07-18 01:37:00",3029541,0.3906667,335.0734,6.048948,0.01948218,0.42,0,0.336,18.46805,5.951594,0.06042074,0.41,0,-999,0,11.31,90,11.37,11.54,0.2,0,0,10.8,13.27,0.2,102.4954,3.321,3.321,3.319,100,0,0,0,169.2,103.7,103.7
"2022-07-18 01:38:00",3029542,0.4113333,320.0701,5.320693,0.04991548,0.49,0,0.2493334,12.71515,9.453649,0.04388875,0.32,0,-999,0,11.32,90,11.37,11.51,0.2,0,0,10.79,13.27,0.2,102.4919,3.32,3.32,3.317,100,0,0,0,169.2,103.7,103.7
"2022-07-18 01:39:00",3029543,0.5893333,304.7333,0.8536577,0.05157088,0.67,0,0.2106667,348.9326,8.283291,0.02112397,0.25,0,-999,0,11.29,90,11.34,11.49,0.2,0,0,10.79,13.27,0.2,102.494,3.319,3.321,3.319,100,0,0,0,169.2,103.7,103.7
"2022-07-18 01:40:00",3029544,0.5786667,305.0666,0.9980307,0.08277413,0.7,0,0.1266667,26.14538,15.66199,0.02440401,0.18,0,-999,0,11.27,90,11.31,11.46,0.2,0,0,10.78,13.27,0.2,102.4852,3.316,3.32,3.316,100,0,0,0,169.2,103.7,103.7
"2022-07-18 01:41:00",3029545,0.6373333,303.8,1.165982,0.02694851,0.68,0,0.07933334,1.606908,15.33235,0.02112397,0.11,0,-999,0,11.24,90,11.28,11.43,0.2,0,0,10.77,13.27,0.2,102.4878,3.318,3.318,3.316,100,0,0,0,169.2,103.7,103.7
"2022-07-18 01:42:00",3029546,0.75,306.1332,1.499658,0.05033223,0.84,0,0.188,5.3443,10.49558,0.05356616,0.27,0,-999,0,11.22,89.9,11.25,11.41,0.2,0,0,10.77,13.27,0.2,102.4872,3.319,3.32,3.318,100,0,0,0,169.2,103.7,103.7
"2022-07-18 01:43:00",3029547,0.8306667,304.6667,1.074975,0.03021404,0.88,0,0.2553333,340.6647,3.680761,0.01995551,0.29,0,-999,0,11.19,89.9,11.22,11.36,0.2,0,0,10.73,13.27,0.2,102.4868,3.318,3.319,3.316,100,0,0,0,169.2,103.7,103.7
"2022-07-18 01:44:00",3029548,0.8146666,305.2667,0.4427931,0.02156128,0.85,0,0.2146667,341.6663,4.315142,0.02124984,0.25,0,-999,0,11.16,89.9,11.16,11.33,0.2,0,0,10.72,13.27,0.2,102.4867,3.318,3.319,3.316,100,0,0,0,169.2,103.7,103.7
"2022-07-18 01:45:00",3029549,0.7246667,304.0667,1.062062,0.06651983,0.78,0,0.1873333,338.1339,2.552187,0.02815828,0.24,0,-999,0,11.13,89.9,11.16,11.31,0.2,0,0,10.72,13.27,0.2,102.4847,3.318,3.319,3.318,100,0,0,0,169.2,103.7,103.7